Index of /20260505/WXO-DD/model_caps/3km/00/009
Name Last modified Size Description
Parent Directory -
20260505T00Z_MSC_CAPS_AbsoluteVorticity_IsbL-0250_RLatLon0.03_PT009H.grib2 2026-05-05 06:06 1.1M
20260505T00Z_MSC_CAPS_AbsoluteVorticity_IsbL-0500_RLatLon0.03_PT009H.grib2 2026-05-05 06:06 1.1M
20260505T00Z_MSC_CAPS_AbsoluteVorticity_IsbL-0700_RLatLon0.03_PT009H.grib2 2026-05-05 06:06 1.1M
20260505T00Z_MSC_CAPS_AbsoluteVorticity_IsbL-0850_RLatLon0.03_PT009H.grib2 2026-05-05 06:06 1.2M
20260505T00Z_MSC_CAPS_AbsoluteVorticity_IsbL-1000_RLatLon0.03_PT009H.grib2 2026-05-05 06:06 1.4M
20260505T00Z_MSC_CAPS_AirDensity_AGL-120m_RLatLon0.03_PT009H.grib2 2026-05-05 06:06 1.4M
20260505T00Z_MSC_CAPS_AirDensity_AGL-40m_RLatLon0.03_PT009H.grib2 2026-05-05 06:06 1.4M
20260505T00Z_MSC_CAPS_AirDensity_AGL-80m_RLatLon0.03_PT009H.grib2 2026-05-05 06:06 1.4M
20260505T00Z_MSC_CAPS_AirTemp_AGL-120m_RLatLon0.03_PT009H.grib2 2026-05-05 06:06 1.4M
20260505T00Z_MSC_CAPS_AirTemp_AGL-2m_RLatLon0.03_PT009H.grib2 2026-05-05 06:06 1.8M
20260505T00Z_MSC_CAPS_AirTemp_AGL-40m_RLatLon0.03_PT009H.grib2 2026-05-05 06:06 1.5M
20260505T00Z_MSC_CAPS_AirTemp_AGL-80m_RLatLon0.03_PT009H.grib2 2026-05-05 06:06 1.4M
20260505T00Z_MSC_CAPS_AirTemp_IsbL-0050_RLatLon0.03_PT009H.grib2 2026-05-05 06:06 692K
20260505T00Z_MSC_CAPS_AirTemp_IsbL-0100_RLatLon0.03_PT009H.grib2 2026-05-05 06:06 958K
20260505T00Z_MSC_CAPS_AirTemp_IsbL-0150_RLatLon0.03_PT009H.grib2 2026-05-05 06:06 745K
20260505T00Z_MSC_CAPS_AirTemp_IsbL-0175_RLatLon0.03_PT009H.grib2 2026-05-05 06:06 765K
20260505T00Z_MSC_CAPS_AirTemp_IsbL-0200_RLatLon0.03_PT009H.grib2 2026-05-05 06:06 788K
20260505T00Z_MSC_CAPS_AirTemp_IsbL-0225_RLatLon0.03_PT009H.grib2 2026-05-05 06:06 790K
20260505T00Z_MSC_CAPS_AirTemp_IsbL-0250_RLatLon0.03_PT009H.grib2 2026-05-05 06:06 1.0M
20260505T00Z_MSC_CAPS_AirTemp_IsbL-0275_RLatLon0.03_PT009H.grib2 2026-05-05 06:06 1.0M
20260505T00Z_MSC_CAPS_AirTemp_IsbL-0300_RLatLon0.03_PT009H.grib2 2026-05-05 06:06 1.0M
20260505T00Z_MSC_CAPS_AirTemp_IsbL-0350_RLatLon0.03_PT009H.grib2 2026-05-05 06:06 750K
20260505T00Z_MSC_CAPS_AirTemp_IsbL-0400_RLatLon0.03_PT009H.grib2 2026-05-05 06:06 761K
20260505T00Z_MSC_CAPS_AirTemp_IsbL-0450_RLatLon0.03_PT009H.grib2 2026-05-05 06:06 772K
20260505T00Z_MSC_CAPS_AirTemp_IsbL-0500_RLatLon0.03_PT009H.grib2 2026-05-05 06:06 786K
20260505T00Z_MSC_CAPS_AirTemp_IsbL-0550_RLatLon0.03_PT009H.grib2 2026-05-05 06:06 954K
20260505T00Z_MSC_CAPS_AirTemp_IsbL-0600_RLatLon0.03_PT009H.grib2 2026-05-05 06:06 970K
20260505T00Z_MSC_CAPS_AirTemp_IsbL-0650_RLatLon0.03_PT009H.grib2 2026-05-05 06:06 1.0M
20260505T00Z_MSC_CAPS_AirTemp_IsbL-0700_RLatLon0.03_PT009H.grib2 2026-05-05 06:06 1.0M
20260505T00Z_MSC_CAPS_AirTemp_IsbL-0750_RLatLon0.03_PT009H.grib2 2026-05-05 06:06 965K
20260505T00Z_MSC_CAPS_AirTemp_IsbL-0800_RLatLon0.03_PT009H.grib2 2026-05-05 06:06 1.0M
20260505T00Z_MSC_CAPS_AirTemp_IsbL-0850_RLatLon0.03_PT009H.grib2 2026-05-05 06:06 1.0M
20260505T00Z_MSC_CAPS_AirTemp_IsbL-0875_RLatLon0.03_PT009H.grib2 2026-05-05 06:06 1.0M
20260505T00Z_MSC_CAPS_AirTemp_IsbL-0900_RLatLon0.03_PT009H.grib2 2026-05-05 06:06 1.0M
20260505T00Z_MSC_CAPS_AirTemp_IsbL-0925_RLatLon0.03_PT009H.grib2 2026-05-05 06:06 1.1M
20260505T00Z_MSC_CAPS_AirTemp_IsbL-0950_RLatLon0.03_PT009H.grib2 2026-05-05 06:06 1.1M
20260505T00Z_MSC_CAPS_AirTemp_IsbL-0970_RLatLon0.03_PT009H.grib2 2026-05-05 06:06 1.1M
20260505T00Z_MSC_CAPS_AirTemp_IsbL-0985_RLatLon0.03_PT009H.grib2 2026-05-05 06:06 1.1M
20260505T00Z_MSC_CAPS_AirTemp_IsbL-1000_RLatLon0.03_PT009H.grib2 2026-05-05 06:06 1.0M
20260505T00Z_MSC_CAPS_AirTemp_IsbL-1015_RLatLon0.03_PT009H.grib2 2026-05-05 06:06 1.1M
20260505T00Z_MSC_CAPS_Albedo_Sfc_RLatLon0.03_PT009H.grib2 2026-05-05 06:06 2.7M
20260505T00Z_MSC_CAPS_CAPE_Sfc_RLatLon0.03_PT009H.grib2 2026-05-05 06:06 231K
20260505T00Z_MSC_CAPS_CloudWater_EAtm_RLatLon0.03_PT009H.grib2 2026-05-05 06:06 1.4M
20260505T00Z_MSC_CAPS_ConvectivePrecip-Accum_Sfc_RLatLon0.03_PT009H.grib2 2026-05-05 06:06 2.2M
20260505T00Z_MSC_CAPS_DewPointDepression_AGL-120m_RLatLon0.03_PT009H.grib2 2026-05-05 06:06 2.0M
20260505T00Z_MSC_CAPS_DewPointDepression_AGL-2m_RLatLon0.03_PT009H.grib2 2026-05-05 06:06 2.1M
20260505T00Z_MSC_CAPS_DewPointDepression_AGL-40m_RLatLon0.03_PT009H.grib2 2026-05-05 06:06 2.1M
20260505T00Z_MSC_CAPS_DewPointDepression_AGL-80m_RLatLon0.03_PT009H.grib2 2026-05-05 06:06 2.1M
20260505T00Z_MSC_CAPS_DewPointDepression_IsbL-0050_RLatLon0.03_PT009H.grib2 2026-05-05 06:06 7.1K
20260505T00Z_MSC_CAPS_DewPointDepression_IsbL-0100_RLatLon0.03_PT009H.grib2 2026-05-05 06:06 66K
20260505T00Z_MSC_CAPS_DewPointDepression_IsbL-0150_RLatLon0.03_PT009H.grib2 2026-05-05 06:06 67K
20260505T00Z_MSC_CAPS_DewPointDepression_IsbL-0175_RLatLon0.03_PT009H.grib2 2026-05-05 06:06 187K
20260505T00Z_MSC_CAPS_DewPointDepression_IsbL-0200_RLatLon0.03_PT009H.grib2 2026-05-05 06:06 357K
20260505T00Z_MSC_CAPS_DewPointDepression_IsbL-0225_RLatLon0.03_PT009H.grib2 2026-05-05 06:06 594K
20260505T00Z_MSC_CAPS_DewPointDepression_IsbL-0250_RLatLon0.03_PT009H.grib2 2026-05-05 06:06 825K
20260505T00Z_MSC_CAPS_DewPointDepression_IsbL-0275_RLatLon0.03_PT009H.grib2 2026-05-05 06:06 966K
20260505T00Z_MSC_CAPS_DewPointDepression_IsbL-0300_RLatLon0.03_PT009H.grib2 2026-05-05 06:06 1.0M
20260505T00Z_MSC_CAPS_DewPointDepression_IsbL-0350_RLatLon0.03_PT009H.grib2 2026-05-05 06:06 1.0M
20260505T00Z_MSC_CAPS_DewPointDepression_IsbL-0400_RLatLon0.03_PT009H.grib2 2026-05-05 06:06 1.1M
20260505T00Z_MSC_CAPS_DewPointDepression_IsbL-0450_RLatLon0.03_PT009H.grib2 2026-05-05 06:06 1.1M
20260505T00Z_MSC_CAPS_DewPointDepression_IsbL-0500_RLatLon0.03_PT009H.grib2 2026-05-05 06:06 1.2M
20260505T00Z_MSC_CAPS_DewPointDepression_IsbL-0550_RLatLon0.03_PT009H.grib2 2026-05-05 06:06 1.2M
20260505T00Z_MSC_CAPS_DewPointDepression_IsbL-0600_RLatLon0.03_PT009H.grib2 2026-05-05 06:06 1.2M
20260505T00Z_MSC_CAPS_DewPointDepression_IsbL-0650_RLatLon0.03_PT009H.grib2 2026-05-05 06:06 1.2M
20260505T00Z_MSC_CAPS_DewPointDepression_IsbL-0700_RLatLon0.03_PT009H.grib2 2026-05-05 06:06 1.3M
20260505T00Z_MSC_CAPS_DewPointDepression_IsbL-0750_RLatLon0.03_PT009H.grib2 2026-05-05 06:06 1.3M
20260505T00Z_MSC_CAPS_DewPointDepression_IsbL-0800_RLatLon0.03_PT009H.grib2 2026-05-05 06:06 1.3M
20260505T00Z_MSC_CAPS_DewPointDepression_IsbL-0850_RLatLon0.03_PT009H.grib2 2026-05-05 06:06 1.3M
20260505T00Z_MSC_CAPS_DewPointDepression_IsbL-0875_RLatLon0.03_PT009H.grib2 2026-05-05 06:06 1.3M
20260505T00Z_MSC_CAPS_DewPointDepression_IsbL-0900_RLatLon0.03_PT009H.grib2 2026-05-05 06:06 1.3M
20260505T00Z_MSC_CAPS_DewPointDepression_IsbL-0925_RLatLon0.03_PT009H.grib2 2026-05-05 06:06 1.3M
20260505T00Z_MSC_CAPS_DewPointDepression_IsbL-0950_RLatLon0.03_PT009H.grib2 2026-05-05 06:06 1.3M
20260505T00Z_MSC_CAPS_DewPointDepression_IsbL-0970_RLatLon0.03_PT009H.grib2 2026-05-05 06:06 1.4M
20260505T00Z_MSC_CAPS_DewPointDepression_IsbL-0985_RLatLon0.03_PT009H.grib2 2026-05-05 06:06 1.4M
20260505T00Z_MSC_CAPS_DewPointDepression_IsbL-1000_RLatLon0.03_PT009H.grib2 2026-05-05 06:06 1.4M
20260505T00Z_MSC_CAPS_DewPointDepression_IsbL-1015_RLatLon0.03_PT009H.grib2 2026-05-05 06:06 1.3M
20260505T00Z_MSC_CAPS_DewPoint_AGL-120m_RLatLon0.03_PT009H.grib2 2026-05-05 06:06 3.6M
20260505T00Z_MSC_CAPS_DewPoint_AGL-2m_RLatLon0.03_PT009H.grib2 2026-05-05 06:06 1.8M
20260505T00Z_MSC_CAPS_DewPoint_AGL-40m_RLatLon0.03_PT009H.grib2 2026-05-05 06:06 3.6M
20260505T00Z_MSC_CAPS_DewPoint_AGL-80m_RLatLon0.03_PT009H.grib2 2026-05-05 06:06 3.6M
20260505T00Z_MSC_CAPS_DownwardLongwaveRadiationFlux-Accum_Sfc_RLatLon0.03_PT009H.grib2 2026-05-05 06:06 2.1M
20260505T00Z_MSC_CAPS_DownwardShortwaveRadiationFlux-Accum_NTAtm_RLatLon0.03_PT009H.grib2 2026-05-05 06:06 449K
20260505T00Z_MSC_CAPS_DownwardShortwaveRadiationFlux-Accum_Sfc_RLatLon0.03_PT009H.grib2 2026-05-05 06:06 2.0M
20260505T00Z_MSC_CAPS_FreezingRain-Accum_Sfc_RLatLon0.03_PT009H.grib2 2026-05-05 06:06 331K
20260505T00Z_MSC_CAPS_GeopotentialHeight_IsbL-0050_RLatLon0.03_PT009H.grib2 2026-05-05 06:06 633K
20260505T00Z_MSC_CAPS_GeopotentialHeight_IsbL-0100_RLatLon0.03_PT009H.grib2 2026-05-05 06:06 759K
20260505T00Z_MSC_CAPS_GeopotentialHeight_IsbL-0150_RLatLon0.03_PT009H.grib2 2026-05-05 06:06 611K
20260505T00Z_MSC_CAPS_GeopotentialHeight_IsbL-0175_RLatLon0.03_PT009H.grib2 2026-05-05 06:06 727K
20260505T00Z_MSC_CAPS_GeopotentialHeight_IsbL-0200_RLatLon0.03_PT009H.grib2 2026-05-05 06:06 742K
20260505T00Z_MSC_CAPS_GeopotentialHeight_IsbL-0225_RLatLon0.03_PT009H.grib2 2026-05-05 06:06 756K
20260505T00Z_MSC_CAPS_GeopotentialHeight_IsbL-0250_RLatLon0.03_PT009H.grib2 2026-05-05 06:06 768K
20260505T00Z_MSC_CAPS_GeopotentialHeight_IsbL-0275_RLatLon0.03_PT009H.grib2 2026-05-05 06:06 775K
20260505T00Z_MSC_CAPS_GeopotentialHeight_IsbL-0300_RLatLon0.03_PT009H.grib2 2026-05-05 06:06 781K
20260505T00Z_MSC_CAPS_GeopotentialHeight_IsbL-0350_RLatLon0.03_PT009H.grib2 2026-05-05 06:06 785K
20260505T00Z_MSC_CAPS_GeopotentialHeight_IsbL-0400_RLatLon0.03_PT009H.grib2 2026-05-05 06:06 781K
20260505T00Z_MSC_CAPS_GeopotentialHeight_IsbL-0450_RLatLon0.03_PT009H.grib2 2026-05-05 06:06 773K
20260505T00Z_MSC_CAPS_GeopotentialHeight_IsbL-0500_RLatLon0.03_PT009H.grib2 2026-05-05 06:06 765K
20260505T00Z_MSC_CAPS_GeopotentialHeight_IsbL-0550_RLatLon0.03_PT009H.grib2 2026-05-05 06:06 644K
20260505T00Z_MSC_CAPS_GeopotentialHeight_IsbL-0600_RLatLon0.03_PT009H.grib2 2026-05-05 06:06 813K
20260505T00Z_MSC_CAPS_GeopotentialHeight_IsbL-0650_RLatLon0.03_PT009H.grib2 2026-05-05 06:06 810K
20260505T00Z_MSC_CAPS_GeopotentialHeight_IsbL-0700_RLatLon0.03_PT009H.grib2 2026-05-05 06:06 811K
20260505T00Z_MSC_CAPS_GeopotentialHeight_IsbL-0750_RLatLon0.03_PT009H.grib2 2026-05-05 06:06 889K
20260505T00Z_MSC_CAPS_GeopotentialHeight_IsbL-0800_RLatLon0.03_PT009H.grib2 2026-05-05 06:06 822K
20260505T00Z_MSC_CAPS_GeopotentialHeight_IsbL-0850_RLatLon0.03_PT009H.grib2 2026-05-05 06:06 835K
20260505T00Z_MSC_CAPS_GeopotentialHeight_IsbL-0875_RLatLon0.03_PT009H.grib2 2026-05-05 06:06 826K
20260505T00Z_MSC_CAPS_GeopotentialHeight_IsbL-0900_RLatLon0.03_PT009H.grib2 2026-05-05 06:06 848K
20260505T00Z_MSC_CAPS_GeopotentialHeight_IsbL-0925_RLatLon0.03_PT009H.grib2 2026-05-05 06:06 668K
20260505T00Z_MSC_CAPS_GeopotentialHeight_IsbL-0950_RLatLon0.03_PT009H.grib2 2026-05-05 06:06 676K
20260505T00Z_MSC_CAPS_GeopotentialHeight_IsbL-0970_RLatLon0.03_PT009H.grib2 2026-05-05 06:06 684K
20260505T00Z_MSC_CAPS_GeopotentialHeight_IsbL-0985_RLatLon0.03_PT009H.grib2 2026-05-05 06:06 691K
20260505T00Z_MSC_CAPS_GeopotentialHeight_IsbL-1000_RLatLon0.03_PT009H.grib2 2026-05-05 06:06 697K
20260505T00Z_MSC_CAPS_GeopotentialHeight_IsbL-1015_RLatLon0.03_PT009H.grib2 2026-05-05 06:06 705K
20260505T00Z_MSC_CAPS_GeopotentialHeight_Sfc_RLatLon0.03_PT009H.grib2 2026-05-05 06:06 1.0M
20260505T00Z_MSC_CAPS_IcePellets-Accum_Sfc_RLatLon0.03_PT009H.grib2 2026-05-05 06:06 54K
20260505T00Z_MSC_CAPS_LatentHeatNetFlux_Sfc_RLatLon0.03_PT009H.grib2 2026-05-05 06:06 1.8M
20260505T00Z_MSC_CAPS_LiftedIndex-MU-VT_IsbL-0500_RLatLon0.03_PT009H.grib2 2026-05-05 06:06 3.4M
20260505T00Z_MSC_CAPS_MixedLayerThickness_Sfc_RLatLon0.03_PT009H.nc 2026-05-05 06:11 16M
20260505T00Z_MSC_CAPS_NetLongwaveRadiationFlux-Accum_Sfc_RLatLon0.03_PT009H.grib2 2026-05-05 06:06 2.9M
20260505T00Z_MSC_CAPS_NetShortwaveRadiationFlux-Accum_Sfc_RLatLon0.03_PT009H.grib2 2026-05-05 06:06 2.1M
20260505T00Z_MSC_CAPS_PlanetaryBoundaryLayerHeight_Sfc_RLatLon0.03_PT009H.grib2 2026-05-05 06:06 2.8M
20260505T00Z_MSC_CAPS_Precip-Accum_Sfc_RLatLon0.03_PT009H.grib2 2026-05-05 06:06 3.4M
20260505T00Z_MSC_CAPS_PrecipRate_Sfc_RLatLon0.03_PT009H.grib2 2026-05-05 06:06 414K
20260505T00Z_MSC_CAPS_PrecipType-Instant_Sfc_RLatLon0.03_PT009H.grib2 2026-05-05 06:06 1.8M
20260505T00Z_MSC_CAPS_Pressure_MSL_RLatLon0.03_PT009H.grib2 2026-05-05 06:06 931K
20260505T00Z_MSC_CAPS_Pressure_Sfc_RLatLon0.03_PT009H.grib2 2026-05-05 06:06 1.2M
20260505T00Z_MSC_CAPS_RadiativeTemp_Sfc_RLatLon0.03_PT009H.grib2 2026-05-05 06:06 2.1M
20260505T00Z_MSC_CAPS_Rain-Accum_Sfc_RLatLon0.03_PT009H.grib2 2026-05-05 06:06 1.7M
20260505T00Z_MSC_CAPS_RelativeHumidity_AGL-120m_RLatLon0.03_PT009H.grib2 2026-05-05 06:06 2.8M
20260505T00Z_MSC_CAPS_RelativeHumidity_AGL-2m_RLatLon0.03_PT009H.grib2 2026-05-05 06:06 2.9M
20260505T00Z_MSC_CAPS_RelativeHumidity_AGL-40m_RLatLon0.03_PT009H.grib2 2026-05-05 06:06 2.9M
20260505T00Z_MSC_CAPS_RelativeHumidity_AGL-80m_RLatLon0.03_PT009H.grib2 2026-05-05 06:06 2.8M
20260505T00Z_MSC_CAPS_RelativeHumidity_IsbL-0050_RLatLon0.03_PT009H.grib2 2026-05-05 06:06 964K
20260505T00Z_MSC_CAPS_RelativeHumidity_IsbL-0100_RLatLon0.03_PT009H.grib2 2026-05-05 06:06 856K
20260505T00Z_MSC_CAPS_RelativeHumidity_IsbL-0150_RLatLon0.03_PT009H.grib2 2026-05-05 06:06 592K
20260505T00Z_MSC_CAPS_RelativeHumidity_IsbL-0175_RLatLon0.03_PT009H.grib2 2026-05-05 06:06 616K
20260505T00Z_MSC_CAPS_RelativeHumidity_IsbL-0200_RLatLon0.03_PT009H.grib2 2026-05-05 06:06 640K
20260505T00Z_MSC_CAPS_RelativeHumidity_IsbL-0225_RLatLon0.03_PT009H.grib2 2026-05-05 06:06 853K
20260505T00Z_MSC_CAPS_RelativeHumidity_IsbL-0250_RLatLon0.03_PT009H.grib2 2026-05-05 06:06 1.1M
20260505T00Z_MSC_CAPS_RelativeHumidity_IsbL-0275_RLatLon0.03_PT009H.grib2 2026-05-05 06:06 1.4M
20260505T00Z_MSC_CAPS_RelativeHumidity_IsbL-0300_RLatLon0.03_PT009H.grib2 2026-05-05 06:06 1.7M
20260505T00Z_MSC_CAPS_RelativeHumidity_IsbL-0350_RLatLon0.03_PT009H.grib2 2026-05-05 06:06 1.9M
20260505T00Z_MSC_CAPS_RelativeHumidity_IsbL-0400_RLatLon0.03_PT009H.grib2 2026-05-05 06:06 2.0M
20260505T00Z_MSC_CAPS_RelativeHumidity_IsbL-0450_RLatLon0.03_PT009H.grib2 2026-05-05 06:06 1.9M
20260505T00Z_MSC_CAPS_RelativeHumidity_IsbL-0500_RLatLon0.03_PT009H.grib2 2026-05-05 06:06 2.1M
20260505T00Z_MSC_CAPS_RelativeHumidity_IsbL-0550_RLatLon0.03_PT009H.grib2 2026-05-05 06:06 2.1M
20260505T00Z_MSC_CAPS_RelativeHumidity_IsbL-0600_RLatLon0.03_PT009H.grib2 2026-05-05 06:06 2.1M
20260505T00Z_MSC_CAPS_RelativeHumidity_IsbL-0650_RLatLon0.03_PT009H.grib2 2026-05-05 06:06 2.1M
20260505T00Z_MSC_CAPS_RelativeHumidity_IsbL-0700_RLatLon0.03_PT009H.grib2 2026-05-05 06:06 2.3M
20260505T00Z_MSC_CAPS_RelativeHumidity_IsbL-0750_RLatLon0.03_PT009H.grib2 2026-05-05 06:06 2.3M
20260505T00Z_MSC_CAPS_RelativeHumidity_IsbL-0800_RLatLon0.03_PT009H.grib2 2026-05-05 06:06 2.3M
20260505T00Z_MSC_CAPS_RelativeHumidity_IsbL-0850_RLatLon0.03_PT009H.grib2 2026-05-05 06:06 2.5M
20260505T00Z_MSC_CAPS_RelativeHumidity_IsbL-0875_RLatLon0.03_PT009H.grib2 2026-05-05 06:06 2.5M
20260505T00Z_MSC_CAPS_RelativeHumidity_IsbL-0900_RLatLon0.03_PT009H.grib2 2026-05-05 06:06 2.6M
20260505T00Z_MSC_CAPS_RelativeHumidity_IsbL-0925_RLatLon0.03_PT009H.grib2 2026-05-05 06:06 2.6M
20260505T00Z_MSC_CAPS_RelativeHumidity_IsbL-0950_RLatLon0.03_PT009H.grib2 2026-05-05 06:06 2.7M
20260505T00Z_MSC_CAPS_RelativeHumidity_IsbL-0970_RLatLon0.03_PT009H.grib2 2026-05-05 06:06 2.8M
20260505T00Z_MSC_CAPS_RelativeHumidity_IsbL-0985_RLatLon0.03_PT009H.grib2 2026-05-05 06:06 2.8M
20260505T00Z_MSC_CAPS_RelativeHumidity_IsbL-1000_RLatLon0.03_PT009H.grib2 2026-05-05 06:06 2.9M
20260505T00Z_MSC_CAPS_RelativeHumidity_IsbL-1015_RLatLon0.03_PT009H.grib2 2026-05-05 06:06 2.9M
20260505T00Z_MSC_CAPS_Runoff-Accum_Sfc_RLatLon0.03_PT009H.grib2 2026-05-05 06:06 248K
20260505T00Z_MSC_CAPS_SeaIceAreaFraction_Sfc_RLatLon0.03_PT009H.nc 2026-05-05 06:11 15M
20260505T00Z_MSC_CAPS_SeaIceCompressiveStrength_Sfc_RLatLon0.03_PT009H.nc 2026-05-05 06:11 15M
20260505T00Z_MSC_CAPS_SeaIceDivergence_Sfc_RLatLon0.03_PT009H.nc 2026-05-05 06:11 15M
20260505T00Z_MSC_CAPS_SeaIceInternalPressure_Sfc_RLatLon0.03_PT009H.nc 2026-05-05 06:11 15M
20260505T00Z_MSC_CAPS_SeaIceShear_Sfc_RLatLon0.03_PT009H.nc 2026-05-05 06:11 15M
20260505T00Z_MSC_CAPS_SeaIceSnowTemp_Sfc_RLatLon0.03_PT009H.nc 2026-05-05 06:11 14M
20260505T00Z_MSC_CAPS_SeaIceSnowVolume_Sfc_RLatLon0.03_PT009H.nc 2026-05-05 06:11 15M
20260505T00Z_MSC_CAPS_SeaIceVelocityX_Sfc_RLatLon0.03_PT009H.nc 2026-05-05 06:11 15M
20260505T00Z_MSC_CAPS_SeaIceVelocityY_Sfc_RLatLon0.03_PT009H.nc 2026-05-05 06:11 15M
20260505T00Z_MSC_CAPS_SeaIceVolume_Sfc_RLatLon0.03_PT009H.nc 2026-05-05 06:11 15M
20260505T00Z_MSC_CAPS_SeaSurfaceHeight_Sfc_RLatLon0.03_PT009H.nc 2026-05-05 06:11 16M
20260505T00Z_MSC_CAPS_SeaWaterSalinity_DBS-0.5m_RLatLon0.03_PT009H.nc 2026-05-05 06:11 16M
20260505T00Z_MSC_CAPS_SeaWaterSalinity_DBS-all_RLatLon0.03_PT009H.nc 2026-05-05 06:11 107M
20260505T00Z_MSC_CAPS_SeaWaterTemp_DBS-0.5m_RLatLon0.03_PT009H.nc 2026-05-05 06:11 14M
20260505T00Z_MSC_CAPS_SeaWaterTemp_DBS-all_RLatLon0.03_PT009H.nc 2026-05-05 06:11 88M
20260505T00Z_MSC_CAPS_SeaWaterVelocityX_DBS-0.5m_RLatLon0.03_PT009H.nc 2026-05-05 06:11 17M
20260505T00Z_MSC_CAPS_SeaWaterVelocityX_DBS-all_RLatLon0.03_PT009H.nc 2026-05-05 06:11 210M
20260505T00Z_MSC_CAPS_SeaWaterVelocityY_DBS-0.5m_RLatLon0.03_PT009H.nc 2026-05-05 06:11 18M
20260505T00Z_MSC_CAPS_SeaWaterVelocityY_DBS-all_RLatLon0.03_PT009H.nc 2026-05-05 06:11 216M
20260505T00Z_MSC_CAPS_SensibleHeatNetFlux_Sfc_RLatLon0.03_PT009H.grib2 2026-05-05 06:06 2.0M
20260505T00Z_MSC_CAPS_ShowalterIndex_IsbL-0500_RLatLon0.03_PT009H.grib2 2026-05-05 06:06 3.8M
20260505T00Z_MSC_CAPS_Snow-Accum_Sfc_RLatLon0.03_PT009H.grib2 2026-05-05 06:06 2.5M
20260505T00Z_MSC_CAPS_SnowDensity_Sfc_RLatLon0.03_PT009H.grib2 2026-05-05 06:06 1.2M
20260505T00Z_MSC_CAPS_SnowDepthWaterEquivalent_Sfc_RLatLon0.03_PT009H.grib2 2026-05-05 06:06 652K
20260505T00Z_MSC_CAPS_SnowDepth_Sfc_RLatLon0.03_PT009H.grib2 2026-05-05 06:06 1.1M
20260505T00Z_MSC_CAPS_SoilTemp_DBS-0to10cm_RLatLon0.03_PT009H.grib2 2026-05-05 06:06 1.4M
20260505T00Z_MSC_CAPS_SoilTemp_Sfc_RLatLon0.03_PT009H.grib2 2026-05-05 06:06 1.9M
20260505T00Z_MSC_CAPS_SoilVolumetricIceContent_Sfc_RLatLon0.03_PT009H.grib2 2026-05-05 06:06 1.3M
20260505T00Z_MSC_CAPS_SoilVolumetricWaterContent_DBS-0to10cm_RLatLon0.03_PT009H.grib2 2026-05-05 06:06 1.2M
20260505T00Z_MSC_CAPS_SoilVolumetricWaterContent_DBS-0to1cm_RLatLon0.03_PT009H.grib2 2026-05-05 06:06 1.7M
20260505T00Z_MSC_CAPS_SpecificHumidity_AGL-120m_RLatLon0.03_PT009H.grib2 2026-05-05 06:06 1.4M
20260505T00Z_MSC_CAPS_SpecificHumidity_AGL-2m_RLatLon0.03_PT009H.grib2 2026-05-05 06:06 2.1M
20260505T00Z_MSC_CAPS_SpecificHumidity_AGL-40m_RLatLon0.03_PT009H.grib2 2026-05-05 06:06 1.4M
20260505T00Z_MSC_CAPS_SpecificHumidity_AGL-80m_RLatLon0.03_PT009H.grib2 2026-05-05 06:06 1.4M
20260505T00Z_MSC_CAPS_SpecificHumidity_IsbL-0050_RLatLon0.03_PT009H.grib2 2026-05-05 06:06 880K
20260505T00Z_MSC_CAPS_SpecificHumidity_IsbL-0100_RLatLon0.03_PT009H.grib2 2026-05-05 06:06 1.0M
20260505T00Z_MSC_CAPS_SpecificHumidity_IsbL-0150_RLatLon0.03_PT009H.grib2 2026-05-05 06:06 1.0M
20260505T00Z_MSC_CAPS_SpecificHumidity_IsbL-0175_RLatLon0.03_PT009H.grib2 2026-05-05 06:06 1.0M
20260505T00Z_MSC_CAPS_SpecificHumidity_IsbL-0200_RLatLon0.03_PT009H.grib2 2026-05-05 06:06 860K
20260505T00Z_MSC_CAPS_SpecificHumidity_IsbL-0225_RLatLon0.03_PT009H.grib2 2026-05-05 06:06 1.0M
20260505T00Z_MSC_CAPS_SpecificHumidity_IsbL-0250_RLatLon0.03_PT009H.grib2 2026-05-05 06:06 1.0M
20260505T00Z_MSC_CAPS_SpecificHumidity_IsbL-0275_RLatLon0.03_PT009H.grib2 2026-05-05 06:06 1.1M
20260505T00Z_MSC_CAPS_SpecificHumidity_IsbL-0300_RLatLon0.03_PT009H.grib2 2026-05-05 06:06 1.0M
20260505T00Z_MSC_CAPS_SpecificHumidity_IsbL-0350_RLatLon0.03_PT009H.grib2 2026-05-05 06:06 968K
20260505T00Z_MSC_CAPS_SpecificHumidity_IsbL-0400_RLatLon0.03_PT009H.grib2 2026-05-05 06:06 966K
20260505T00Z_MSC_CAPS_SpecificHumidity_IsbL-0450_RLatLon0.03_PT009H.grib2 2026-05-05 06:06 1.1M
20260505T00Z_MSC_CAPS_SpecificHumidity_IsbL-0500_RLatLon0.03_PT009H.grib2 2026-05-05 06:06 1.0M
20260505T00Z_MSC_CAPS_SpecificHumidity_IsbL-0550_RLatLon0.03_PT009H.grib2 2026-05-05 06:06 1.2M
20260505T00Z_MSC_CAPS_SpecificHumidity_IsbL-0600_RLatLon0.03_PT009H.grib2 2026-05-05 06:06 1.3M
20260505T00Z_MSC_CAPS_SpecificHumidity_IsbL-0650_RLatLon0.03_PT009H.grib2 2026-05-05 06:06 1.4M
20260505T00Z_MSC_CAPS_SpecificHumidity_IsbL-0700_RLatLon0.03_PT009H.grib2 2026-05-05 06:06 1.6M
20260505T00Z_MSC_CAPS_SpecificHumidity_IsbL-0750_RLatLon0.03_PT009H.grib2 2026-05-05 06:06 1.3M
20260505T00Z_MSC_CAPS_SpecificHumidity_IsbL-0800_RLatLon0.03_PT009H.grib2 2026-05-05 06:06 1.5M
20260505T00Z_MSC_CAPS_SpecificHumidity_IsbL-0850_RLatLon0.03_PT009H.grib2 2026-05-05 06:06 1.7M
20260505T00Z_MSC_CAPS_SpecificHumidity_IsbL-0875_RLatLon0.03_PT009H.grib2 2026-05-05 06:06 1.7M
20260505T00Z_MSC_CAPS_SpecificHumidity_IsbL-0900_RLatLon0.03_PT009H.grib2 2026-05-05 06:06 1.8M
20260505T00Z_MSC_CAPS_SpecificHumidity_IsbL-0925_RLatLon0.03_PT009H.grib2 2026-05-05 06:06 1.5M
20260505T00Z_MSC_CAPS_SpecificHumidity_IsbL-0950_RLatLon0.03_PT009H.grib2 2026-05-05 06:06 1.5M
20260505T00Z_MSC_CAPS_SpecificHumidity_IsbL-0970_RLatLon0.03_PT009H.grib2 2026-05-05 06:06 1.6M
20260505T00Z_MSC_CAPS_SpecificHumidity_IsbL-0985_RLatLon0.03_PT009H.grib2 2026-05-05 06:06 2.0M
20260505T00Z_MSC_CAPS_SpecificHumidity_IsbL-1000_RLatLon0.03_PT009H.grib2 2026-05-05 06:06 1.7M
20260505T00Z_MSC_CAPS_SpecificHumidity_IsbL-1015_RLatLon0.03_PT009H.grib2 2026-05-05 06:06 2.1M
20260505T00Z_MSC_CAPS_SpecificHumidity_Sfc_RLatLon0.03_PT009H.grib2 2026-05-05 06:06 2.0M
20260505T00Z_MSC_CAPS_StormRelativeHelicity_Sfc_RLatLon0.03_PT009H.grib2 2026-05-05 06:06 3.3M
20260505T00Z_MSC_CAPS_Thickness_IsbL-1000to0500_RLatLon0.03_PT009H.grib2 2026-05-05 06:06 474K
20260505T00Z_MSC_CAPS_TotalCloudCover_Sfc_RLatLon0.03_PT009H.grib2 2026-05-05 06:06 3.3M
20260505T00Z_MSC_CAPS_TurboclineDepth_Sfc_RLatLon0.03_PT009H.nc 2026-05-05 06:11 16M
20260505T00Z_MSC_CAPS_UpwardLongwaveRadiationFlux_NTAtm_RLatLon0.03_PT009H.grib2 2026-05-05 06:06 2.8M
20260505T00Z_MSC_CAPS_UpwardShortwaveRadiationFlux_NTAtm_RLatLon0.03_PT009H.grib2 2026-05-05 06:06 1.9M
20260505T00Z_MSC_CAPS_VerticalVelocity_IsbL-0250_RLatLon0.03_PT009H.grib2 2026-05-05 06:06 1.0M
20260505T00Z_MSC_CAPS_VerticalVelocity_IsbL-0500_RLatLon0.03_PT009H.grib2 2026-05-05 06:06 1.2M
20260505T00Z_MSC_CAPS_VerticalVelocity_IsbL-0700_RLatLon0.03_PT009H.grib2 2026-05-05 06:06 964K
20260505T00Z_MSC_CAPS_VerticalVelocity_IsbL-0850_RLatLon0.03_PT009H.grib2 2026-05-05 06:06 1.1M
20260505T00Z_MSC_CAPS_VerticalVelocity_IsbL-1000_RLatLon0.03_PT009H.grib2 2026-05-05 06:06 1.4M
20260505T00Z_MSC_CAPS_WindDir_AGL-10m_RLatLon0.03_PT009H.grib2 2026-05-05 06:06 2.4M
20260505T00Z_MSC_CAPS_WindDir_AGL-120m_RLatLon0.03_PT009H.grib2 2026-05-05 06:06 1.2M
20260505T00Z_MSC_CAPS_WindDir_AGL-40m_RLatLon0.03_PT009H.grib2 2026-05-05 06:06 1.3M
20260505T00Z_MSC_CAPS_WindDir_AGL-80m_RLatLon0.03_PT009H.grib2 2026-05-05 06:06 1.3M
20260505T00Z_MSC_CAPS_WindDir_IsbL-0050_RLatLon0.03_PT009H.grib2 2026-05-05 06:06 1.1M
20260505T00Z_MSC_CAPS_WindDir_IsbL-0100_RLatLon0.03_PT009H.grib2 2026-05-05 06:06 1.1M
20260505T00Z_MSC_CAPS_WindDir_IsbL-0150_RLatLon0.03_PT009H.grib2 2026-05-05 06:06 1.0M
20260505T00Z_MSC_CAPS_WindDir_IsbL-0175_RLatLon0.03_PT009H.grib2 2026-05-05 06:06 1.1M
20260505T00Z_MSC_CAPS_WindDir_IsbL-0200_RLatLon0.03_PT009H.grib2 2026-05-05 06:06 1.1M
20260505T00Z_MSC_CAPS_WindDir_IsbL-0225_RLatLon0.03_PT009H.grib2 2026-05-05 06:06 1.1M
20260505T00Z_MSC_CAPS_WindDir_IsbL-0250_RLatLon0.03_PT009H.grib2 2026-05-05 06:06 1.1M
20260505T00Z_MSC_CAPS_WindDir_IsbL-0275_RLatLon0.03_PT009H.grib2 2026-05-05 06:06 1.1M
20260505T00Z_MSC_CAPS_WindDir_IsbL-0300_RLatLon0.03_PT009H.grib2 2026-05-05 06:06 1.1M
20260505T00Z_MSC_CAPS_WindDir_IsbL-0350_RLatLon0.03_PT009H.grib2 2026-05-05 06:06 1.1M
20260505T00Z_MSC_CAPS_WindDir_IsbL-0400_RLatLon0.03_PT009H.grib2 2026-05-05 06:06 1.1M
20260505T00Z_MSC_CAPS_WindDir_IsbL-0450_RLatLon0.03_PT009H.grib2 2026-05-05 06:06 1.2M
20260505T00Z_MSC_CAPS_WindDir_IsbL-0500_RLatLon0.03_PT009H.grib2 2026-05-05 06:06 1.2M
20260505T00Z_MSC_CAPS_WindDir_IsbL-0550_RLatLon0.03_PT009H.grib2 2026-05-05 06:06 1.3M
20260505T00Z_MSC_CAPS_WindDir_IsbL-0600_RLatLon0.03_PT009H.grib2 2026-05-05 06:06 1.3M
20260505T00Z_MSC_CAPS_WindDir_IsbL-0650_RLatLon0.03_PT009H.grib2 2026-05-05 06:06 1.4M
20260505T00Z_MSC_CAPS_WindDir_IsbL-0700_RLatLon0.03_PT009H.grib2 2026-05-05 06:06 1.5M
20260505T00Z_MSC_CAPS_WindDir_IsbL-0750_RLatLon0.03_PT009H.grib2 2026-05-05 06:06 1.6M
20260505T00Z_MSC_CAPS_WindDir_IsbL-0800_RLatLon0.03_PT009H.grib2 2026-05-05 06:06 1.6M
20260505T00Z_MSC_CAPS_WindDir_IsbL-0850_RLatLon0.03_PT009H.grib2 2026-05-05 06:06 1.7M
20260505T00Z_MSC_CAPS_WindDir_IsbL-0875_RLatLon0.03_PT009H.grib2 2026-05-05 06:06 1.8M
20260505T00Z_MSC_CAPS_WindDir_IsbL-0900_RLatLon0.03_PT009H.grib2 2026-05-05 06:06 1.9M
20260505T00Z_MSC_CAPS_WindDir_IsbL-0925_RLatLon0.03_PT009H.grib2 2026-05-05 06:06 1.9M
20260505T00Z_MSC_CAPS_WindDir_IsbL-0950_RLatLon0.03_PT009H.grib2 2026-05-05 06:06 2.0M
20260505T00Z_MSC_CAPS_WindDir_IsbL-0970_RLatLon0.03_PT009H.grib2 2026-05-05 06:06 2.1M
20260505T00Z_MSC_CAPS_WindDir_IsbL-0985_RLatLon0.03_PT009H.grib2 2026-05-05 06:06 2.2M
20260505T00Z_MSC_CAPS_WindDir_IsbL-1000_RLatLon0.03_PT009H.grib2 2026-05-05 06:06 2.3M
20260505T00Z_MSC_CAPS_WindDir_IsbL-1015_RLatLon0.03_PT009H.grib2 2026-05-05 06:06 2.3M
20260505T00Z_MSC_CAPS_WindGust-Max_AGL-10m_RLatLon0.03_PT009H.grib2 2026-05-05 06:06 2.5M
20260505T00Z_MSC_CAPS_WindGust-Min_AGL-10m_RLatLon0.03_PT009H.grib2 2026-05-05 06:06 2.3M
20260505T00Z_MSC_CAPS_WindGust_AGL-10m_RLatLon0.03_PT009H.grib2 2026-05-05 06:06 2.5M
20260505T00Z_MSC_CAPS_WindSpeed_AGL-10m_RLatLon0.03_PT009H.grib2 2026-05-05 06:06 2.1M
20260505T00Z_MSC_CAPS_WindSpeed_AGL-120m_RLatLon0.03_PT009H.grib2 2026-05-05 06:06 1.2M
20260505T00Z_MSC_CAPS_WindSpeed_AGL-40m_RLatLon0.03_PT009H.grib2 2026-05-05 06:06 1.2M
20260505T00Z_MSC_CAPS_WindSpeed_AGL-80m_RLatLon0.03_PT009H.grib2 2026-05-05 06:06 1.2M
20260505T00Z_MSC_CAPS_WindSpeed_IsbL-0050_RLatLon0.03_PT009H.grib2 2026-05-05 06:06 955K
20260505T00Z_MSC_CAPS_WindSpeed_IsbL-0100_RLatLon0.03_PT009H.grib2 2026-05-05 06:06 1.0M
20260505T00Z_MSC_CAPS_WindSpeed_IsbL-0150_RLatLon0.03_PT009H.grib2 2026-05-05 06:06 1.0M
20260505T00Z_MSC_CAPS_WindSpeed_IsbL-0175_RLatLon0.03_PT009H.grib2 2026-05-05 06:06 1.1M
20260505T00Z_MSC_CAPS_WindSpeed_IsbL-0200_RLatLon0.03_PT009H.grib2 2026-05-05 06:06 936K
20260505T00Z_MSC_CAPS_WindSpeed_IsbL-0225_RLatLon0.03_PT009H.grib2 2026-05-05 06:06 955K
20260505T00Z_MSC_CAPS_WindSpeed_IsbL-0250_RLatLon0.03_PT009H.grib2 2026-05-05 06:06 971K
20260505T00Z_MSC_CAPS_WindSpeed_IsbL-0275_RLatLon0.03_PT009H.grib2 2026-05-05 06:06 1.0M
20260505T00Z_MSC_CAPS_WindSpeed_IsbL-0300_RLatLon0.03_PT009H.grib2 2026-05-05 06:06 1.0M
20260505T00Z_MSC_CAPS_WindSpeed_IsbL-0350_RLatLon0.03_PT009H.grib2 2026-05-05 06:06 1.0M
20260505T00Z_MSC_CAPS_WindSpeed_IsbL-0400_RLatLon0.03_PT009H.grib2 2026-05-05 06:06 1.0M
20260505T00Z_MSC_CAPS_WindSpeed_IsbL-0450_RLatLon0.03_PT009H.grib2 2026-05-05 06:06 1.0M
20260505T00Z_MSC_CAPS_WindSpeed_IsbL-0500_RLatLon0.03_PT009H.grib2 2026-05-05 06:06 1.4M
20260505T00Z_MSC_CAPS_WindSpeed_IsbL-0550_RLatLon0.03_PT009H.grib2 2026-05-05 06:06 1.4M
20260505T00Z_MSC_CAPS_WindSpeed_IsbL-0600_RLatLon0.03_PT009H.grib2 2026-05-05 06:06 1.5M
20260505T00Z_MSC_CAPS_WindSpeed_IsbL-0650_RLatLon0.03_PT009H.grib2 2026-05-05 06:06 1.5M
20260505T00Z_MSC_CAPS_WindSpeed_IsbL-0700_RLatLon0.03_PT009H.grib2 2026-05-05 06:06 1.6M
20260505T00Z_MSC_CAPS_WindSpeed_IsbL-0750_RLatLon0.03_PT009H.grib2 2026-05-05 06:06 1.7M
20260505T00Z_MSC_CAPS_WindSpeed_IsbL-0800_RLatLon0.03_PT009H.grib2 2026-05-05 06:06 1.7M
20260505T00Z_MSC_CAPS_WindSpeed_IsbL-0850_RLatLon0.03_PT009H.grib2 2026-05-05 06:06 1.8M
20260505T00Z_MSC_CAPS_WindSpeed_IsbL-0875_RLatLon0.03_PT009H.grib2 2026-05-05 06:06 1.8M
20260505T00Z_MSC_CAPS_WindSpeed_IsbL-0900_RLatLon0.03_PT009H.grib2 2026-05-05 06:06 1.9M
20260505T00Z_MSC_CAPS_WindSpeed_IsbL-0925_RLatLon0.03_PT009H.grib2 2026-05-05 06:06 1.9M
20260505T00Z_MSC_CAPS_WindSpeed_IsbL-0950_RLatLon0.03_PT009H.grib2 2026-05-05 06:06 2.0M
20260505T00Z_MSC_CAPS_WindSpeed_IsbL-0970_RLatLon0.03_PT009H.grib2 2026-05-05 06:06 2.0M
20260505T00Z_MSC_CAPS_WindSpeed_IsbL-0985_RLatLon0.03_PT009H.grib2 2026-05-05 06:06 2.1M
20260505T00Z_MSC_CAPS_WindSpeed_IsbL-1000_RLatLon0.03_PT009H.grib2 2026-05-05 06:06 2.1M
20260505T00Z_MSC_CAPS_WindSpeed_IsbL-1015_RLatLon0.03_PT009H.grib2 2026-05-05 06:06 2.1M
20260505T00Z_MSC_CAPS_WindU_AGL-10m_RLatLon0.03_PT009H.grib2 2026-05-05 06:06 1.9M
20260505T00Z_MSC_CAPS_WindU_AGL-120m_RLatLon0.03_PT009H.grib2 2026-05-05 06:06 917K
20260505T00Z_MSC_CAPS_WindU_AGL-40m_RLatLon0.03_PT009H.grib2 2026-05-05 06:06 1.2M
20260505T00Z_MSC_CAPS_WindU_AGL-80m_RLatLon0.03_PT009H.grib2 2026-05-05 06:06 925K
20260505T00Z_MSC_CAPS_WindU_IsbL-0050_RLatLon0.03_PT009H.grib2 2026-05-05 06:06 946K
20260505T00Z_MSC_CAPS_WindU_IsbL-0100_RLatLon0.03_PT009H.grib2 2026-05-05 06:06 971K
20260505T00Z_MSC_CAPS_WindU_IsbL-0150_RLatLon0.03_PT009H.grib2 2026-05-05 06:06 924K
20260505T00Z_MSC_CAPS_WindU_IsbL-0175_RLatLon0.03_PT009H.grib2 2026-05-05 06:06 727K
20260505T00Z_MSC_CAPS_WindU_IsbL-0200_RLatLon0.03_PT009H.grib2 2026-05-05 06:06 877K
20260505T00Z_MSC_CAPS_WindU_IsbL-0225_RLatLon0.03_PT009H.grib2 2026-05-05 06:06 899K
20260505T00Z_MSC_CAPS_WindU_IsbL-0250_RLatLon0.03_PT009H.grib2 2026-05-05 06:06 915K
20260505T00Z_MSC_CAPS_WindU_IsbL-0275_RLatLon0.03_PT009H.grib2 2026-05-05 06:06 922K
20260505T00Z_MSC_CAPS_WindU_IsbL-0300_RLatLon0.03_PT009H.grib2 2026-05-05 06:06 720K
20260505T00Z_MSC_CAPS_WindU_IsbL-0350_RLatLon0.03_PT009H.grib2 2026-05-05 06:06 733K
20260505T00Z_MSC_CAPS_WindU_IsbL-0400_RLatLon0.03_PT009H.grib2 2026-05-05 06:06 955K
20260505T00Z_MSC_CAPS_WindU_IsbL-0450_RLatLon0.03_PT009H.grib2 2026-05-05 06:06 973K
20260505T00Z_MSC_CAPS_WindU_IsbL-0500_RLatLon0.03_PT009H.grib2 2026-05-05 06:06 1.0M
20260505T00Z_MSC_CAPS_WindU_IsbL-0550_RLatLon0.03_PT009H.grib2 2026-05-05 06:06 1.0M
20260505T00Z_MSC_CAPS_WindU_IsbL-0600_RLatLon0.03_PT009H.grib2 2026-05-05 06:06 1.0M
20260505T00Z_MSC_CAPS_WindU_IsbL-0650_RLatLon0.03_PT009H.grib2 2026-05-05 06:06 1.1M
20260505T00Z_MSC_CAPS_WindU_IsbL-0700_RLatLon0.03_PT009H.grib2 2026-05-05 06:06 1.1M
20260505T00Z_MSC_CAPS_WindU_IsbL-0750_RLatLon0.03_PT009H.grib2 2026-05-05 06:06 1.2M
20260505T00Z_MSC_CAPS_WindU_IsbL-0800_RLatLon0.03_PT009H.grib2 2026-05-05 06:06 1.1M
20260505T00Z_MSC_CAPS_WindU_IsbL-0850_RLatLon0.03_PT009H.grib2 2026-05-05 06:06 1.2M
20260505T00Z_MSC_CAPS_WindU_IsbL-0875_RLatLon0.03_PT009H.grib2 2026-05-05 06:06 1.3M
20260505T00Z_MSC_CAPS_WindU_IsbL-0900_RLatLon0.03_PT009H.grib2 2026-05-05 06:06 1.3M
20260505T00Z_MSC_CAPS_WindU_IsbL-0925_RLatLon0.03_PT009H.grib2 2026-05-05 06:06 1.3M
20260505T00Z_MSC_CAPS_WindU_IsbL-0950_RLatLon0.03_PT009H.grib2 2026-05-05 06:06 1.4M
20260505T00Z_MSC_CAPS_WindU_IsbL-0970_RLatLon0.03_PT009H.grib2 2026-05-05 06:06 1.4M
20260505T00Z_MSC_CAPS_WindU_IsbL-0985_RLatLon0.03_PT009H.grib2 2026-05-05 06:06 1.5M
20260505T00Z_MSC_CAPS_WindU_IsbL-1000_RLatLon0.03_PT009H.grib2 2026-05-05 06:06 1.9M
20260505T00Z_MSC_CAPS_WindU_IsbL-1015_RLatLon0.03_PT009H.grib2 2026-05-05 06:06 1.9M
20260505T00Z_MSC_CAPS_WindV_AGL-10m_RLatLon0.03_PT009H.grib2 2026-05-05 06:06 1.9M
20260505T00Z_MSC_CAPS_WindV_AGL-120m_RLatLon0.03_PT009H.grib2 2026-05-05 06:06 917K
20260505T00Z_MSC_CAPS_WindV_AGL-40m_RLatLon0.03_PT009H.grib2 2026-05-05 06:06 1.2M
20260505T00Z_MSC_CAPS_WindV_AGL-80m_RLatLon0.03_PT009H.grib2 2026-05-05 06:06 926K
20260505T00Z_MSC_CAPS_WindV_IsbL-0050_RLatLon0.03_PT009H.grib2 2026-05-05 06:06 772K
20260505T00Z_MSC_CAPS_WindV_IsbL-0100_RLatLon0.03_PT009H.grib2 2026-05-05 06:06 969K
20260505T00Z_MSC_CAPS_WindV_IsbL-0150_RLatLon0.03_PT009H.grib2 2026-05-05 06:06 710K
20260505T00Z_MSC_CAPS_WindV_IsbL-0175_RLatLon0.03_PT009H.grib2 2026-05-05 06:06 850K
20260505T00Z_MSC_CAPS_WindV_IsbL-0200_RLatLon0.03_PT009H.grib2 2026-05-05 06:06 870K
20260505T00Z_MSC_CAPS_WindV_IsbL-0225_RLatLon0.03_PT009H.grib2 2026-05-05 06:06 891K
20260505T00Z_MSC_CAPS_WindV_IsbL-0250_RLatLon0.03_PT009H.grib2 2026-05-05 06:06 700K
20260505T00Z_MSC_CAPS_WindV_IsbL-0275_RLatLon0.03_PT009H.grib2 2026-05-05 06:06 709K
20260505T00Z_MSC_CAPS_WindV_IsbL-0300_RLatLon0.03_PT009H.grib2 2026-05-05 06:06 718K
20260505T00Z_MSC_CAPS_WindV_IsbL-0350_RLatLon0.03_PT009H.grib2 2026-05-05 06:06 730K
20260505T00Z_MSC_CAPS_WindV_IsbL-0400_RLatLon0.03_PT009H.grib2 2026-05-05 06:06 952K
20260505T00Z_MSC_CAPS_WindV_IsbL-0450_RLatLon0.03_PT009H.grib2 2026-05-05 06:06 972K
20260505T00Z_MSC_CAPS_WindV_IsbL-0500_RLatLon0.03_PT009H.grib2 2026-05-05 06:06 1.0M
20260505T00Z_MSC_CAPS_WindV_IsbL-0550_RLatLon0.03_PT009H.grib2 2026-05-05 06:06 1.0M
20260505T00Z_MSC_CAPS_WindV_IsbL-0600_RLatLon0.03_PT009H.grib2 2026-05-05 06:06 938K
20260505T00Z_MSC_CAPS_WindV_IsbL-0650_RLatLon0.03_PT009H.grib2 2026-05-05 06:06 1.2M
20260505T00Z_MSC_CAPS_WindV_IsbL-0700_RLatLon0.03_PT009H.grib2 2026-05-05 06:06 1.3M
20260505T00Z_MSC_CAPS_WindV_IsbL-0750_RLatLon0.03_PT009H.grib2 2026-05-05 06:06 1.4M
20260505T00Z_MSC_CAPS_WindV_IsbL-0800_RLatLon0.03_PT009H.grib2 2026-05-05 06:06 1.5M
20260505T00Z_MSC_CAPS_WindV_IsbL-0850_RLatLon0.03_PT009H.grib2 2026-05-05 06:06 1.2M
20260505T00Z_MSC_CAPS_WindV_IsbL-0875_RLatLon0.03_PT009H.grib2 2026-05-05 06:06 1.3M
20260505T00Z_MSC_CAPS_WindV_IsbL-0900_RLatLon0.03_PT009H.grib2 2026-05-05 06:06 1.3M
20260505T00Z_MSC_CAPS_WindV_IsbL-0925_RLatLon0.03_PT009H.grib2 2026-05-05 06:06 1.3M
20260505T00Z_MSC_CAPS_WindV_IsbL-0950_RLatLon0.03_PT009H.grib2 2026-05-05 06:06 1.4M
20260505T00Z_MSC_CAPS_WindV_IsbL-0970_RLatLon0.03_PT009H.grib2 2026-05-05 06:06 1.4M
20260505T00Z_MSC_CAPS_WindV_IsbL-0985_RLatLon0.03_PT009H.grib2 2026-05-05 06:06 1.5M
20260505T00Z_MSC_CAPS_WindV_IsbL-1000_RLatLon0.03_PT009H.grib2 2026-05-05 06:06 1.9M
20260505T00Z_MSC_CAPS_WindV_IsbL-1015_RLatLon0.03_PT009H.grib2 2026-05-05 06:06 1.9M